Location: Saluda
(35.2377°N, 82.3468°W)
Time: 15:36:24
(UTC+00:00)

Explorer 11/Cluster Stage 4 - Pass Details

Date: 04 October 2022
Orbit: 466 x 1247 km, 28.8° (Epoch: 08 December)

Event Time Altitude Azimuth Distance (km) Brightness Sun altitude
Rises 20:36:57 0° 269° (W) 3,960 11.1 28.7°
Reaches altitude 10° 20:40:16 10° 260° (W) 2,887 10.9 28.1°
Maximum altitude 20:46:18 31° 201° (SSW) 1,572 9.2 27.0°
Drops below altitude 10° 20:51:21 10° 141° (SE) 2,391 9.0 26.1°
Sets 20:53:51 0° 130° (SE) 3,190 9.5 25.6°
